This is the latest recevied weather packets stored in our database for station/object K7DC. If no packets are shown the sender has not sent any weather packets the latest 10 day(s).
| Time | Temp. | Humidity | Pressure | Rain* | Wind** | Luminosity | Snow |
|---|---|---|---|---|---|---|---|
| 1776963964 | 27.78° C | 17% | 1015.1 hPa | 0 mm | - | 773 W/m² | - |
| 1776963664 | 27.78° C | 16% | 1015.1 hPa | 0 mm | - | 750 W/m² | - |
| 1776963359 | 27.78° C | 16% | 1015 hPa | 0 mm | - | 738 W/m² | - |
| 1776963055 | 27.78° C | 16% | 1014.8 hPa | 0 mm | - | 726 W/m² | - |
| 1776962752 | 27.22° C | 17% | 1015 hPa | 0 mm | - | 708 W/m² | - |
| 1776962446 | 26.11° C | 17% | 1015 hPa | 0 mm | - | 695 W/m² | - |
| 1776962141 | 25.56° C | 18% | 1014.7 hPa | 0 mm | - | 681 W/m² | - |
| 1776961840 | 25° C | 19% | 1014.8 hPa | 0 mm | - | 665 W/m² | - |
| 1776961539 | 25° C | 20% | 1014.8 hPa | 0 mm | - | 647 W/m² | - |
| 1776961239 | 26.11° C | 20% | 1014.6 hPa | 0 mm | - | 632 W/m² | - |
| 1776960934 | 25.56° C | 19% | 1014.7 hPa | 0 mm | - | 616 W/m² | - |
| 1776960629 | 25.56° C | 20% | 1014.7 hPa | 0 mm | - | 599 W/m² | - |
| 1776960324 | 25° C | 20% | 1015 hPa | 0 mm | - | 582 W/m² | - |
| 1776960019 | 25° C | 20% | 1014.8 hPa | 0 mm | - | 567 W/m² | - |
| 1776959715 | 24.44° C | 22% | 1014.8 hPa | 0 mm | - | 550 W/m² | - |
| 1776959413 | 25° C | 24% | 1014.7 hPa | 0 mm | - | 532 W/m² | - |
| 1776959108 | 23.89° C | 23% | 1015 hPa | 0 mm | - | 618 W/m² | - |
| 1776958803 | 23.33° C | 26% | 1014.8 hPa | 0 mm | - | 574 W/m² | - |
| 1776958503 | 22.78° C | 25% | 1014.8 hPa | 0 mm | - | 157 W/m² | - |
| 1776958202 | 22.22° C | 27% | 1015 hPa | 0 mm | - | 456 W/m² | - |
| 1776957901 | 21.67° C | 27% | 1015.1 hPa | 0 mm | - | 68 W/m² | - |
| 1776957598 | 21.11° C | 28% | 1015 hPa | 0 mm | - | 418 W/m² | - |
| 1776957293 | 21.11° C | 29% | 1015.1 hPa | 0 mm | - | 400 W/m² | - |
| 1776956992 | 20.56° C | 30% | 1015 hPa | 0 mm | - | 379 W/m² | - |
| 1776956692 | 20° C | 30% | 1015 hPa | 0 mm | - | 359 W/m² | - |
* Rain latest hour (hover to see other rain measurements)
** Current wind speed in m/s (hover to see current wind gust speed)